Погода в Тирлянском

Россия / Республика Башкортостан     54°12′39″N   58°35′11″E
темп.,
°C
ветер,
м/с
пор.,
м/с
влажн.,
%
обл.,
%
осадки,
мм/ч
давл.,
гПа
погр.,
м
17 июня, чт
чт1723:00+12зсз229293 3.6 101532
02:00+12з119454 0.0 101411
05:00+13юз1193100 0.1 101214
08:00+18юз1279100 0.0 1009128
11:00+25зюз364065 0.0 10071402
14:00+25з584284 0.0 10072241
17:00+22зсз475795 0.1 10061140
20:00+15ссз5109198 0.3 1009858
18 июня, пт
пт1823:00+11сз310919 0.3 1012611
02:00+10ссз39865 0.1 1012402
05:00+11ссз397152 0.1 1014786
08:00+12ссз510565 0.0 10151292
11:00+15ссз684350 0.0 10151960
14:00+14ссз584492 0.0 10171943
17:00+16с68345 0.0 10182269
20:00+13ссз48475 0.0 10201400
19 июня, сб
сб1923:00+7сз22740 0.0 102332
02:00+6зсз22775 0.0 102428
05:00+6зсз227295 0.0 102529
08:00+13сз484892 0.0 10231145
11:00+15сз6949100 0.0 10231506
14:00+13сз496098 0.0 1023986
17:00+18зсз6952100 0.0 10211620
20:00+15зсз6116793 0.0 10201064
20 июня, вс
вс2023:00+14зсз5147736 0.0 1019761
02:00+15зсз514857 0.0 1018857
05:00+14зсз3129256 0.1 1017579
08:00+18сз412735 0.0 1017876
11:00+21сз61460100 0.0 10161382
14:00+22сз71362100 0.1 10161346
17:00+19сз6128436 1.2 10171101
20:00+18ссз510837 0.3 1017995
21 июня, пн
пн2123:00+15ссз38890 0.4 1019326
02:00+12зсз22900 0.0 102038
05:00+10зсз22890 0.0 102119
08:00+18сз26450 0.0 1020534
11:00+22ссз47420 0.0 10201354
14:00+25ссз463825 0.0 10192435
17:00+24сз464476 0.0 10182186
20:00+20зсз497199 0.1 1019675